Weather History for KPPO - April, 2012

Change the Weather History Date:

Monday, April 2, 2012

  Actual Average (KVPZ) Record (KVPZ)
Temperature  
Mean Temperature 56 °F 44 °F  
Max Temperature 62 °F 54 °F 80 °F (2003)
Min Temperature 50 °F 34 °F 23 °F (2013)
Degree Days  
Heating Degree Days 9 21  
Month to date heating degree days 42  
Since 1 July heating degree days 5619  
Cooling Degree Days 0 0  
Month to date cooling degree days 0  
Year to date cooling degree days 0  
Growing Degree Days 6 (Base 50)    
Moisture  
Dew Point 34 °F    
Average Humidity 44    
Maximum Humidity 58    
Minimum Humidity 32    
Precipitation  
Precipitation 0.00 in 0.09 in 0.51 in (2002)
Month to date precipitation 0.18  
Year to date precipitation 5.83  
Sea Level Pressure  
Sea Level Pressure 29.92 in    
Wind  
Wind Speed 10 mph ()    
Max Wind Speed 16 mph    
Max Gust Speed 21 mph    
Visibility 10.0 miles    
Events      
T = Trace of Precipitation, MM = Missing Value Source: Averaged Metar Reports

Daily Weather History Graph

Daily Weather History Graph

Search for Another Location

Airport or City:

Trip Planner

Search our weather history database for the weather conditions in past years. The results will help you decide how hot, cold, wet, or windy it might be!

Date:

Astronomy

Apr. 02, 2012 Rise Set
Actual Time 6:27 AM CDT 7:13 PM CDT
Civil Twilight 5:59 AM CDT 7:42 PM CDT
Nautical Twilight 5:26 AM CDT 8:15 PM CDT
Astronomical Twilight 4:51 AM CDT 8:49 PM CDT
Moon 2:46 PM CDT 3:44 AM CDT
Length of Visible Light 13h 42m
Length of Day
12h 46m
Waxing Gibbous, 78% of the Moon is Illuminated
Apr 2
Waxing Gibbous
Apr 6
Full
Apr 13
Last Quarter
Apr 21
New
Apr 29
First Quarter

Hourly Weather History & Observations

Time (CDT) Temp. Dew Point Humidity Pressure Visibility Wind Dir Wind Speed Gust Speed Precip Events Conditions
2:55 PM 62.6 °F 32.0 °F 32% 29.93 in 10.0 mi SSE 11.5 mph 18.4 mph N/A   Clear
3:15 PM 62.6 °F 32.0 °F 32% 29.94 in 10.0 mi SE 11.5 mph - N/A   Clear
3:35 PM 62.6 °F 32.0 °F 32% 29.93 in 10.0 mi SE 10.4 mph 18.4 mph N/A   Clear
3:55 PM 62.6 °F 32.0 °F 32% 29.93 in 10.0 mi ESE 15.0 mph - N/A   Clear
4:15 PM 62.6 °F 32.0 °F 32% 29.92 in 10.0 mi SE 10.4 mph - N/A   Clear
4:35 PM 62.6 °F 32.0 °F 32% 29.91 in 10.0 mi SE 13.8 mph - N/A   Clear
4:55 PM 62.6 °F 32.0 °F 32% 29.91 in 10.0 mi ESE 12.7 mph 20.7 mph N/A   Clear
5:15 PM 62.6 °F 32.0 °F 32% 29.91 in 10.0 mi ESE 11.5 mph - N/A   Clear
5:35 PM 62.6 °F 32.0 °F 32% 29.91 in 10.0 mi SE 12.7 mph - N/A   Clear
5:55 PM 60.8 °F 32.0 °F 34% 29.91 in 10.0 mi ESE 16.1 mph - N/A   Clear
6:15 PM 60.8 °F 32.0 °F 34% 29.91 in 10.0 mi ESE 13.8 mph 18.4 mph N/A   Clear
6:55 PM 59.0 °F 33.8 °F 39% 29.91 in 10.0 mi ESE 11.5 mph - N/A   Clear
7:15 PM 55.4 °F 35.6 °F 47% 29.92 in 10.0 mi ESE 9.2 mph - N/A   Clear
7:35 PM 55.4 °F 35.6 °F 47% 29.92 in 10.0 mi East 9.2 mph - N/A   Mostly Cloudy
7:55 PM 53.6 °F 35.6 °F 51% 29.92 in 10.0 mi ESE 10.4 mph - N/A   Mostly Cloudy
8:15 PM 53.6 °F 35.6 °F 51% 29.93 in 10.0 mi ESE 6.9 mph - N/A   Scattered Clouds
8:35 PM 51.8 °F 35.6 °F 54% 29.92 in 10.0 mi ESE 10.4 mph - N/A   Scattered Clouds
8:55 PM 51.8 °F 35.6 °F 54% 29.92 in 10.0 mi ESE 10.4 mph - N/A   Mostly Cloudy
9:15 PM 51.8 °F 35.6 °F 54% 29.92 in 10.0 mi ESE 10.4 mph - N/A   Scattered Clouds
9:35 PM 51.8 °F 35.6 °F 54% 29.92 in 10.0 mi ESE 9.2 mph - N/A   Clear
9:55 PM 51.8 °F 35.6 °F 54% 29.92 in 10.0 mi ESE 10.4 mph - N/A   Scattered Clouds
10:15 PM 51.8 °F 35.6 °F 54% 29.92 in 10.0 mi ESE 12.7 mph - N/A   Scattered Clouds
10:35 PM 51.8 °F 35.6 °F 54% 29.92 in 10.0 mi ESE 12.7 mph - N/A   Clear
10:55 PM 50.0 °F 35.6 °F 58% 29.92 in 10.0 mi ESE 12.7 mph - N/A   Clear
11:15 PM 50.0 °F 35.6 °F 58% 29.93 in 10.0 mi ESE 10.4 mph - N/A   Clear
11:35 PM 50.0 °F 35.6 °F 58% 29.94 in 10.0 mi ESE 10.4 mph - N/A   Clear
11:55 PM 50.0 °F 35.6 °F 58% 29.94 in 10.0 mi SE 11.5 mph - N/A   Clear